GW4755 Weather Reports


Display with metric or nautical units.
time (UTC)temp
F
wind
direction
speed
MPH
gust
MPH
rain 1hr
in
rain 24hr
in
rain mn
in
humidity
%
barometer
mb
20260507043004 54 337 0.0 0.0 0.00 0.00 0.00 85 1005.1
20260507041503 55 336 0.0 0.0 0.00 0.00 0.00 84 1005.1
20260507040004 55 308 0.0 0.0 0.00 0.00 0.00 84 1005.1
20260507034505 56 267 0.0 0.0 0.00 0.00 0.00 84 1005.1
20260507033003 57 319 0.0 0.0 0.00 0.00 0.00 84 1005.1
20260507031504 57 288 0.0 0.0 0.00 0.00 0.00 84 1004.7
20260507030004 57 316 0.0 0.0 0.00 0.00 0.00 84 1004.7
20260507024504 58 281 0.0 0.0 0.00 0.00 0.00 85 1004.7
20260507023003 58 339 0.0 0.0 0.00 0.00 0.00 84 1004.4
20260507020004 58 327 0.0 0.0 0.00 0.00 0.00 82 1004.7
20260507014504 59 312 0.0 0.0 0.00 0.00 0.00 80 1005.1
20260507013004 59 313 0.0 0.0 0.00 0.00 0.00 78 1005.1
20260507011503 59 318 0.0 0.0 0.00 0.00 0.00 81 1005.1
20260507010003 60 309 0.0 0.0 0.00 0.00 0.00 80 1005.1
20260507004503 60 20 0.0 4.0 0.00 0.00 0.00 77 1005.1
20260507003004 60 51 0.0 0.0 0.00 0.00 0.00 79 1005.1
20260507001504 60 34 0.0 0.0 0.00 0.00 0.00 79 1005.1
20260507000004 60 52 0.0 1.0 0.00 0.00 0.00 79 1005.1
20260506234503 60 54 1.0 2.0 0.00 0.00 0.00 78 1005.4
20260506231503 62 72 3.0 5.0 0.00 0.00 0.00 74 1005.4
20260506230003 63 12 0.0 4.0 0.00 0.00 0.00 73 1005.8
20260506224503 63 65 2.0 4.0 0.00 0.00 0.00 73 1005.8
20260506221504 65 337 0.0 2.0 0.00 0.00 0.00 73 1006.1
20260506220004 65 41 3.0 5.0 0.00 0.00 0.00 71 1006.1
20260506214503 65 16 0.0 2.0 0.00 0.00 0.00 72 1006.1
20260506213004 65 69 2.0 3.0 0.00 0.00 0.00 73 1006.4
20260506204503 66 332 0.0 1.0 0.00 0.00 0.00 71 1006.4
20260506203004 66 63 1.0 4.0 0.00 0.00 0.00 71 1006.4
20260506201503 68 358 6.0 6.0 0.00 0.00 0.00 71 1006.4
20260506200004 68 43 0.0 3.0 0.00 0.00 0.00 72 1006.4
20260506194504 67 76 2.0 2.0 0.00 0.00 0.00 74 1006.8
20260506191505 65 52 0.0 3.0 0.00 0.00 0.00 75 1007.1
20260506190005 65 20 0.0 1.0 0.00 0.00 0.00 75 1007.1
20260506181503 64 330 0.0 0.0 0.00 0.00 0.00 77 1007.1
20260506180005 63 73 0.0 0.0 0.00 0.00 0.00 81 1007.1
20260506174504 61 14 0.0 0.0 0.00 0.00 0.00 82 1007.1
20260506173005 61 312 0.0 0.0 0.00 0.00 0.00 83 1007.1
20260506171503 59 28 0.0 0.0 0.00 0.00 0.00 87 1007.1
20260506164504 56 354 0.0 0.0 0.00 0.00 0.00 89 1007.5
20260506163005 56 2 0.0 0.0 0.00 0.00 0.00 91 1007.5
20260506161504 55 2 0.0 0.0 0.00 0.00 0.00 91 1007.5
20260506160005 55 340 0.0 0.0 0.00 0.00 0.00 91 1007.5
20260506154503 54 339 0.0 0.0 0.00 0.00 0.00 91 1007.5
20260506151503 53 339 0.0 0.0 0.00 0.00 0.00 92 1007.5
20260506150004 53 339 0.0 0.0 0.00 0.00 0.00 92 1007.1
20260506144504 52 339 0.0 0.0 0.00 0.00 0.00 92 1007.5
20260506143003 52 0 0.0 0.0 0.00 0.00 0.00 92 1007.1
20260506141503 52 1 0.0 0.0 0.00 0.00 0.00 92 1007.1
20260506140005 52 0 0.0 0.0 0.00 0.00 0.00 92 1007.1
20260506134503 52 0 0.0 0.0 0.00 0.00 0.00 92 1007.1
20260506133004 52 0 0.0 0.0 0.00 0.00 0.00 92 1006.8
20260506131505 52 6 0.0 0.0 0.00 0.00 0.00 92 1006.8
20260506130005 52 8 0.0 0.0 0.00 0.00 0.00 92 1006.4
20260506124503 51 358 0.0 0.0 0.00 0.00 0.00 92 1006.4
20260506121503 52 358 0.0 0.0 0.00 0.00 0.00 92 1006.4
20260506120005 52 358 0.0 0.0 0.00 0.00 0.00 92 1006.4
20260506112503 52 358 0.0 0.0 0.00 0.00 0.00 92 1006.1
20260506111005 52 358 0.0 0.0 0.00 0.00 0.00 92 1006.1
20260506105503 51 358 0.0 0.0 0.00 0.00 0.00 92 1005.8
20260506103504 51 8 0.0 0.0 0.00 0.00 0.00 92 1005.8
20260506101503 51 344 0.0 0.0 0.00 0.00 0.00 91 1005.8
20260506091503 51 3 0.0 0.0 0.00 0.00 0.00 92 1005.8
20260506090004 51 325 0.0 0.0 0.00 0.00 0.00 92 1005.8
20260506083003 51 348 0.0 0.0 0.00 0.00 0.00 92 1005.8
20260506081503 51 19 0.0 0.0 0.00 0.00 0.00 91 1005.4
20260506073003 50 358 0.0 0.0 0.00 0.00 0.00 91 1005.4
20260506071504 50 4 0.0 0.0 0.00 0.00 0.00 91 1005.1
20260506061503 51 358 0.0 0.0 0.00 0.00 0.00 91 1005.1
20260506044504 52 355 0.0 0.0 0.00 0.00 0.00 88 1004.1